Year,Month,Day,Hour,Minute,Value (Times are PST for temperature in C)
2015,06,08,00,00,17.60
2015,06,08,00,01,17.60
2015,06,08,00,02,17.60
2015,06,08,00,03,17.60
2015,06,08,00,04,17.50
2015,06,08,00,05,17.50
2015,06,08,00,06,17.50
2015,06,08,00,07,17.50
2015,06,08,00,08,17.40
2015,06,08,00,09,17.40
2015,06,08,00,10,17.40
2015,06,08,00,11,17.40
2015,06,08,00,12,17.40
2015,06,08,00,13,17.40
2015,06,08,00,14,17.40
2015,06,08,00,15,17.40
2015,06,08,00,16,17.40
2015,06,08,00,17,17.40
2015,06,08,00,18,17.40
2015,06,08,00,19,17.30
2015,06,08,00,20,17.30
2015,06,08,00,21,17.30
2015,06,08,00,22,17.30
2015,06,08,00,23,17.30
2015,06,08,00,24,17.20
2015,06,08,00,25,17.20
2015,06,08,00,26,17.20
2015,06,08,00,27,17.20
2015,06,08,00,28,17.10
2015,06,08,00,29,17.10
2015,06,08,00,30,17.10
2015,06,08,00,31,17.10
2015,06,08,00,32,17.10
2015,06,08,00,33,17.10
2015,06,08,00,34,17.10
2015,06,08,00,35,17.10
2015,06,08,00,36,17.10
2015,06,08,00,37,17.00
2015,06,08,00,38,17.00
2015,06,08,00,39,17.00
2015,06,08,00,40,17.00
2015,06,08,00,41,17.00
2015,06,08,00,42,17.00
2015,06,08,00,43,17.00
2015,06,08,00,44,16.90
2015,06,08,00,45,16.90
2015,06,08,00,46,16.90
2015,06,08,00,47,16.90
2015,06,08,00,48,16.90
2015,06,08,00,49,16.90
2015,06,08,00,50,16.90
2015,06,08,00,51,16.90
2015,06,08,00,52,16.80
2015,06,08,00,53,16.80
2015,06,08,00,54,16.80
2015,06,08,00,55,16.80
2015,06,08,00,56,16.80
2015,06,08,00,57,16.80
2015,06,08,00,58,16.80
2015,06,08,00,59,16.80
2015,06,08,01,00,16.80
2015,06,08,01,01,16.80
2015,06,08,01,02,16.80
2015,06,08,01,03,16.80
2015,06,08,01,04,16.80
2015,06,08,01,05,16.80
2015,06,08,01,06,16.80
2015,06,08,01,07,16.80
2015,06,08,01,08,16.80
2015,06,08,01,09,16.70
2015,06,08,01,10,16.70
2015,06,08,01,11,16.70
2015,06,08,01,12,16.70
2015,06,08,01,13,16.70
2015,06,08,01,14,16.70
2015,06,08,01,15,16.70
2015,06,08,01,16,16.70
2015,06,08,01,17,16.70
2015,06,08,01,18,16.70
2015,06,08,01,19,16.60
2015,06,08,01,20,16.60
2015,06,08,01,21,16.60
2015,06,08,01,22,16.60
2015,06,08,01,23,16.60
2015,06,08,01,24,16.60
2015,06,08,01,25,16.60
2015,06,08,01,26,16.60
2015,06,08,01,27,16.70
2015,06,08,01,28,16.70
2015,06,08,01,29,16.70
2015,06,08,01,30,16.70
2015,06,08,01,31,16.70
2015,06,08,01,32,16.70
2015,06,08,01,33,16.70
2015,06,08,01,34,16.70
2015,06,08,01,35,16.70
2015,06,08,01,36,16.70
2015,06,08,01,37,16.70
2015,06,08,01,38,16.70
2015,06,08,01,39,16.60
2015,06,08,01,40,16.60
2015,06,08,01,41,16.60
2015,06,08,01,42,16.60
2015,06,08,01,43,16.50
2015,06,08,01,44,16.50
2015,06,08,01,45,16.50
2015,06,08,01,46,16.50
2015,06,08,01,47,16.50
2015,06,08,01,48,16.40
2015,06,08,01,49,16.40
2015,06,08,01,50,16.40
2015,06,08,01,51,16.40
2015,06,08,01,52,16.40
2015,06,08,01,53,16.40
2015,06,08,01,54,16.40
2015,06,08,01,55,16.40
2015,06,08,01,56,16.40
2015,06,08,01,57,16.40
2015,06,08,01,58,16.40
2015,06,08,01,59,16.40
2015,06,08,02,00,16.40
2015,06,08,02,01,16.40
2015,06,08,02,02,16.40
2015,06,08,02,03,16.40
2015,06,08,02,04,16.40
2015,06,08,02,05,16.40
2015,06,08,02,06,16.40
2015,06,08,02,07,16.40
2015,06,08,02,08,16.40
2015,06,08,02,09,16.40
2015,06,08,02,10,16.40
2015,06,08,02,11,16.40
2015,06,08,02,12,16.40
2015,06,08,02,13,16.40
2015,06,08,02,14,16.40
2015,06,08,02,15,16.40
2015,06,08,02,16,16.40
2015,06,08,02,17,16.40
2015,06,08,02,18,16.40
2015,06,08,02,19,16.40
2015,06,08,02,20,16.40
2015,06,08,02,21,16.40
2015,06,08,02,22,16.40
2015,06,08,02,23,16.30
2015,06,08,02,24,16.30
2015,06,08,02,25,16.30
2015,06,08,02,26,16.30
2015,06,08,02,27,16.30
2015,06,08,02,28,16.30
2015,06,08,02,29,16.30
2015,06,08,02,30,16.30
2015,06,08,02,31,16.20
2015,06,08,02,32,16.20
2015,06,08,02,33,16.20
2015,06,08,02,34,16.20
2015,06,08,02,35,16.20
2015,06,08,02,36,16.10
2015,06,08,02,37,16.10
2015,06,08,02,38,16.10
2015,06,08,02,39,16.10
2015,06,08,02,40,16.10
2015,06,08,02,41,16.00
2015,06,08,02,42,16.00
2015,06,08,02,43,15.90
2015,06,08,02,44,15.80
2015,06,08,02,45,15.60
2015,06,08,02,46,15.50
2015,06,08,02,47,15.40
2015,06,08,02,48,15.30
2015,06,08,02,49,15.20
2015,06,08,02,50,15.10
2015,06,08,02,51,15.10
2015,06,08,02,52,15.10
2015,06,08,02,53,15.00
2015,06,08,02,54,15.00
2015,06,08,02,55,15.00
2015,06,08,02,56,15.00
2015,06,08,02,57,15.00
2015,06,08,02,58,15.00
2015,06,08,02,59,15.10
2015,06,08,03,00,15.10
2015,06,08,03,01,15.20
2015,06,08,03,02,15.20
2015,06,08,03,03,15.20
2015,06,08,03,04,15.30
2015,06,08,03,05,15.30
2015,06,08,03,06,15.40
2015,06,08,03,07,15.40
2015,06,08,03,08,15.40
2015,06,08,03,09,15.50
2015,06,08,03,10,15.60
2015,06,08,03,11,15.60
2015,06,08,03,12,15.70
2015,06,08,03,13,15.70
2015,06,08,03,14,15.70
2015,06,08,03,15,15.70
2015,06,08,03,16,15.80
2015,06,08,03,17,15.80
2015,06,08,03,18,15.80
2015,06,08,03,19,15.80
2015,06,08,03,20,15.80
2015,06,08,03,21,15.80
2015,06,08,03,22,15.80
2015,06,08,03,23,15.90
2015,06,08,03,24,15.90
2015,06,08,03,25,15.90
2015,06,08,03,26,15.90
2015,06,08,03,27,15.90
2015,06,08,03,28,15.90
2015,06,08,03,29,15.90
2015,06,08,03,30,15.90
2015,06,08,03,31,15.90
2015,06,08,03,32,15.90
2015,06,08,03,33,15.90
2015,06,08,03,34,15.90
2015,06,08,03,35,15.90
2015,06,08,03,36,15.90
2015,06,08,03,37,15.80
2015,06,08,03,38,15.80
2015,06,08,03,39,15.80
2015,06,08,03,40,15.70
2015,06,08,03,41,15.70
2015,06,08,03,42,15.60
2015,06,08,03,43,15.60
2015,06,08,03,44,15.60
2015,06,08,03,45,15.50
2015,06,08,03,46,15.50
2015,06,08,03,47,15.40
2015,06,08,03,48,15.30
2015,06,08,03,49,15.30
2015,06,08,03,50,15.20
2015,06,08,03,51,15.20
2015,06,08,03,52,15.10
2015,06,08,03,53,15.10
2015,06,08,03,54,15.00
2015,06,08,03,55,15.00
2015,06,08,03,56,14.90
2015,06,08,03,57,14.90
2015,06,08,03,58,14.80
2015,06,08,03,59,14.80
2015,06,08,04,00,14.80
2015,06,08,04,01,14.70
2015,06,08,04,02,14.70
2015,06,08,04,03,14.60
2015,06,08,04,04,14.60
2015,06,08,04,05,14.50
2015,06,08,04,06,14.50
2015,06,08,04,07,14.40
2015,06,08,04,08,14.40
2015,06,08,04,09,14.30
2015,06,08,04,10,14.30
2015,06,08,04,11,14.20
2015,06,08,04,12,14.20
2015,06,08,04,13,14.20
2015,06,08,04,14,14.20
2015,06,08,04,15,14.20
2015,06,08,04,16,14.20
2015,06,08,04,17,14.20
2015,06,08,04,18,14.20
2015,06,08,04,19,14.20
2015,06,08,04,20,14.20
2015,06,08,04,21,14.30
2015,06,08,04,22,14.30
2015,06,08,04,23,14.30
2015,06,08,04,24,14.30
2015,06,08,04,25,14.30
2015,06,08,04,26,14.30
2015,06,08,04,27,14.40
2015,06,08,04,28,14.40
2015,06,08,04,29,14.40
2015,06,08,04,30,14.40
2015,06,08,04,31,14.40
2015,06,08,04,32,14.40
2015,06,08,04,33,14.40
2015,06,08,04,34,14.40
2015,06,08,04,35,14.40
2015,06,08,04,36,14.40
2015,06,08,04,37,14.50
2015,06,08,04,38,14.50
2015,06,08,04,39,14.60
2015,06,08,04,40,14.60
2015,06,08,04,41,14.60
2015,06,08,04,42,14.70
2015,06,08,04,43,14.70
2015,06,08,04,44,14.70
2015,06,08,04,45,14.80
2015,06,08,04,46,14.80
2015,06,08,04,47,14.80
2015,06,08,04,48,14.90
2015,06,08,04,49,14.90
2015,06,08,04,50,14.90
2015,06,08,04,51,14.90
2015,06,08,04,52,14.90
2015,06,08,04,53,14.90
2015,06,08,04,54,14.90
2015,06,08,04,55,14.80
2015,06,08,04,56,14.80
2015,06,08,04,57,14.80
2015,06,08,04,58,14.80
2015,06,08,04,59,14.80
2015,06,08,05,00,14.70
2015,06,08,05,01,14.70
2015,06,08,05,02,14.70
2015,06,08,05,03,14.70
2015,06,08,05,04,14.60
2015,06,08,05,05,14.60
2015,06,08,05,06,14.60
2015,06,08,05,07,14.60
2015,06,08,05,08,14.60
2015,06,08,05,09,14.60
2015,06,08,05,10,14.60
2015,06,08,05,11,14.70
2015,06,08,05,12,14.70
2015,06,08,05,13,14.70
2015,06,08,05,14,14.70
2015,06,08,05,15,14.70
2015,06,08,05,16,14.70
2015,06,08,05,17,14.70
2015,06,08,05,18,14.70
2015,06,08,05,19,14.70
2015,06,08,05,20,14.80
2015,06,08,05,21,14.80
2015,06,08,05,22,14.80
2015,06,08,05,23,14.80
2015,06,08,05,24,14.80
2015,06,08,05,25,14.80
2015,06,08,05,26,14.80
2015,06,08,05,27,14.80
2015,06,08,05,28,14.80
2015,06,08,05,29,14.80
2015,06,08,05,30,14.70
2015,06,08,05,31,14.70
2015,06,08,05,32,14.60
2015,06,08,05,33,14.60
2015,06,08,05,34,14.60
2015,06,08,05,35,14.50
2015,06,08,05,36,14.50
2015,06,08,05,37,14.50
2015,06,08,05,38,14.40
2015,06,08,05,39,14.40
2015,06,08,05,40,14.40
2015,06,08,05,41,14.40
2015,06,08,05,42,14.30
2015,06,08,05,43,14.30
2015,06,08,05,44,14.30
2015,06,08,05,45,14.30
2015,06,08,05,46,14.30
2015,06,08,05,47,14.30
2015,06,08,05,48,14.30
2015,06,08,05,49,14.30
2015,06,08,05,50,14.30
2015,06,08,05,51,14.40
2015,06,08,05,52,14.40
2015,06,08,05,53,14.40
2015,06,08,05,54,14.40
2015,06,08,05,55,14.50
2015,06,08,05,56,14.50
2015,06,08,05,57,14.60
2015,06,08,05,58,14.60
2015,06,08,05,59,14.70
2015,06,08,06,00,14.70
2015,06,08,06,01,14.80
2015,06,08,06,02,14.80
2015,06,08,06,03,14.90
2015,06,08,06,04,14.90
2015,06,08,06,05,14.90
2015,06,08,06,06,14.90
2015,06,08,06,07,14.90
2015,06,08,06,08,14.90
2015,06,08,06,09,15.00
2015,06,08,06,10,15.00
2015,06,08,06,11,15.00
2015,06,08,06,12,15.10
2015,06,08,06,13,15.10
2015,06,08,06,14,15.10
2015,06,08,06,15,15.10
2015,06,08,06,16,15.20
2015,06,08,06,17,15.20
2015,06,08,06,18,15.20
2015,06,08,06,19,15.20
2015,06,08,06,20,15.30
2015,06,08,06,21,15.30
2015,06,08,06,22,15.30
2015,06,08,06,23,15.40
2015,06,08,06,24,15.40
2015,06,08,06,25,15.40
2015,06,08,06,26,15.50
2015,06,08,06,27,15.50
2015,06,08,06,28,15.60
2015,06,08,06,29,15.60
2015,06,08,06,30,15.60
2015,06,08,06,31,15.70
2015,06,08,06,32,15.70
2015,06,08,06,33,15.80
2015,06,08,06,34,15.80
2015,06,08,06,35,15.90
2015,06,08,06,36,15.90
2015,06,08,06,37,16.00
2015,06,08,06,38,16.00
2015,06,08,06,39,16.10
2015,06,08,06,40,16.10
2015,06,08,06,41,16.20
2015,06,08,06,42,16.20
2015,06,08,06,43,16.30
2015,06,08,06,44,16.40
2015,06,08,06,45,16.40
2015,06,08,06,46,16.40
2015,06,08,06,47,16.40
2015,06,08,06,48,16.40
2015,06,08,06,49,16.50
2015,06,08,06,50,16.50
2015,06,08,06,51,16.50
2015,06,08,06,52,16.60
2015,06,08,06,53,16.60
2015,06,08,06,54,16.70
2015,06,08,06,55,16.70
2015,06,08,06,56,16.80
2015,06,08,06,57,16.80
2015,06,08,06,58,16.80
2015,06,08,06,59,16.80
2015,06,08,07,00,16.80
2015,06,08,07,01,16.80
2015,06,08,07,02,16.80
2015,06,08,07,03,16.90
2015,06,08,07,04,16.90
2015,06,08,07,05,17.00
2015,06,08,07,06,17.00
2015,06,08,07,07,17.10
2015,06,08,07,08,17.10
2015,06,08,07,09,17.10
2015,06,08,07,10,17.20
2015,06,08,07,11,17.10
2015,06,08,07,12,17.10
2015,06,08,07,13,17.10
2015,06,08,07,14,17.10
2015,06,08,07,15,17.10
2015,06,08,07,16,17.20
2015,06,08,07,17,17.20
2015,06,08,07,18,17.20
2015,06,08,07,19,17.20
2015,06,08,07,20,17.30
2015,06,08,07,21,17.30
2015,06,08,07,22,17.30
2015,06,08,07,23,17.30
2015,06,08,07,24,17.40
2015,06,08,07,25,17.40
2015,06,08,07,26,17.40
2015,06,08,07,27,17.50
2015,06,08,07,28,17.50
2015,06,08,07,29,17.60
2015,06,08,07,30,17.60
2015,06,08,07,31,17.70
2015,06,08,07,32,17.70
2015,06,08,07,33,17.70
2015,06,08,07,34,17.70
2015,06,08,07,35,17.80
2015,06,08,07,36,17.80
2015,06,08,07,37,17.80
2015,06,08,07,38,17.90
2015,06,08,07,39,18.00
2015,06,08,07,40,18.10
2015,06,08,07,41,18.20
2015,06,08,07,42,18.20
2015,06,08,07,43,18.30
2015,06,08,07,44,18.30
2015,06,08,07,45,18.40
2015,06,08,07,46,18.50
2015,06,08,07,47,18.50
2015,06,08,07,48,18.60
2015,06,08,07,49,18.60
2015,06,08,07,50,18.70
2015,06,08,07,51,18.70
2015,06,08,07,52,18.70
2015,06,08,07,53,18.70
2015,06,08,07,54,18.80
2015,06,08,07,55,18.80
2015,06,08,07,56,18.80
2015,06,08,07,57,18.80
2015,06,08,07,58,18.80
2015,06,08,07,59,18.80
2015,06,08,08,00,18.80
2015,06,08,08,01,18.80
2015,06,08,08,02,18.90
2015,06,08,08,03,18.90
2015,06,08,08,04,18.90
2015,06,08,08,05,18.90
2015,06,08,08,06,19.00
2015,06,08,08,07,19.00
2015,06,08,08,08,19.10
2015,06,08,08,09,19.20
2015,06,08,08,10,19.20
2015,06,08,08,11,19.30
2015,06,08,08,12,19.30
2015,06,08,08,13,19.30
2015,06,08,08,14,19.30
2015,06,08,08,15,19.20
2015,06,08,08,16,19.20
2015,06,08,08,17,19.20
2015,06,08,08,18,19.10
2015,06,08,08,19,19.10
2015,06,08,08,20,19.10
2015,06,08,08,21,19.00
2015,06,08,08,22,19.10
2015,06,08,08,23,19.10
2015,06,08,08,24,19.10
2015,06,08,08,25,19.10
2015,06,08,08,26,19.10
2015,06,08,08,27,19.10
2015,06,08,08,28,19.20
2015,06,08,08,29,19.20
2015,06,08,08,30,19.20
2015,06,08,08,31,19.20
2015,06,08,08,32,19.30
2015,06,08,08,33,19.30
2015,06,08,08,34,19.40
2015,06,08,08,35,19.40
2015,06,08,08,36,19.50
2015,06,08,08,37,19.70
2015,06,08,08,38,19.70
2015,06,08,08,39,19.80
2015,06,08,08,40,19.90
2015,06,08,08,41,20.00
2015,06,08,08,42,20.10
2015,06,08,08,43,20.10
2015,06,08,08,44,20.20
2015,06,08,08,45,20.20
2015,06,08,08,46,20.20
2015,06,08,08,47,20.20
2015,06,08,08,48,20.20
2015,06,08,08,49,20.30
2015,06,08,08,50,20.30
2015,06,08,08,51,20.30
2015,06,08,08,52,20.30
2015,06,08,08,53,20.30
2015,06,08,08,54,20.40
2015,06,08,08,55,20.40
2015,06,08,08,56,20.40
2015,06,08,08,57,20.40
2015,06,08,08,58,20.40
2015,06,08,08,59,20.40
2015,06,08,09,00,20.40
2015,06,08,09,01,20.40
2015,06,08,09,02,20.40
2015,06,08,09,03,20.40
2015,06,08,09,04,20.40
2015,06,08,09,05,20.30
2015,06,08,09,06,20.30
2015,06,08,09,07,20.30
2015,06,08,09,08,20.30
2015,06,08,09,09,20.30
2015,06,08,09,10,20.30
2015,06,08,09,11,20.30
2015,06,08,09,12,20.30
2015,06,08,09,13,20.30
2015,06,08,09,14,20.30
2015,06,08,09,15,20.30
2015,06,08,09,16,20.30
2015,06,08,09,17,20.30
2015,06,08,09,18,20.30
2015,06,08,09,19,20.30
2015,06,08,09,20,20.20
2015,06,08,09,21,20.20
2015,06,08,09,22,20.10
2015,06,08,09,23,20.10
2015,06,08,09,24,20.10
2015,06,08,09,25,20.10
2015,06,08,09,26,20.10
2015,06,08,09,27,20.10
2015,06,08,09,28,20.10
2015,06,08,09,29,20.10
2015,06,08,09,30,20.10
2015,06,08,09,31,20.10
2015,06,08,09,32,20.10
2015,06,08,09,33,20.10
2015,06,08,09,34,20.10
2015,06,08,09,35,20.10
2015,06,08,09,36,20.10
2015,06,08,09,37,20.10
2015,06,08,09,38,20.10
2015,06,08,09,39,20.10
2015,06,08,09,40,20.10
2015,06,08,09,41,20.00
2015,06,08,09,42,20.00
2015,06,08,09,43,19.90
2015,06,08,09,44,19.90
2015,06,08,09,45,19.80
2015,06,08,09,46,19.80
2015,06,08,09,47,19.80
2015,06,08,09,48,19.70
2015,06,08,09,49,19.70
2015,06,08,09,50,19.70
2015,06,08,09,51,19.70
2015,06,08,09,52,19.70
2015,06,08,09,53,19.70
2015,06,08,09,54,19.80
2015,06,08,09,55,19.80
2015,06,08,09,56,19.90
2015,06,08,09,57,19.90
2015,06,08,09,58,19.90
2015,06,08,09,59,19.90
2015,06,08,10,00,19.90
2015,06,08,10,01,19.90
2015,06,08,10,02,19.90
2015,06,08,10,03,19.90
2015,06,08,10,04,19.90
2015,06,08,10,05,19.90
2015,06,08,10,06,20.00
2015,06,08,10,07,20.00
2015,06,08,10,08,20.00
2015,06,08,10,09,20.10
2015,06,08,10,10,20.10
2015,06,08,10,11,20.10
2015,06,08,10,12,20.10
2015,06,08,10,13,20.10
2015,06,08,10,14,20.20
2015,06,08,10,15,20.20
2015,06,08,10,16,20.20
2015,06,08,10,17,20.20
2015,06,08,10,18,20.20
2015,06,08,10,19,20.10
2015,06,08,10,20,20.20
2015,06,08,10,21,20.20
2015,06,08,10,22,20.30
2015,06,08,10,23,20.30
2015,06,08,10,24,20.20
2015,06,08,10,25,20.30
2015,06,08,10,26,20.30
2015,06,08,10,27,20.30
2015,06,08,10,28,20.40
2015,06,08,10,29,20.40
2015,06,08,10,30,20.40
2015,06,08,10,31,20.40
2015,06,08,10,32,20.40
2015,06,08,10,33,20.30
2015,06,08,10,34,20.30
2015,06,08,10,35,20.30
2015,06,08,10,36,20.30
2015,06,08,10,37,20.30
2015,06,08,10,38,20.30
2015,06,08,10,39,20.30
2015,06,08,10,40,20.30
2015,06,08,10,41,20.30
2015,06,08,10,42,20.20
2015,06,08,10,43,20.20
2015,06,08,10,44,20.20
2015,06,08,10,45,20.30
2015,06,08,10,46,20.30
2015,06,08,10,47,20.30
2015,06,08,10,48,20.40
2015,06,08,10,49,20.40
2015,06,08,10,50,20.50
2015,06,08,10,51,20.60
2015,06,08,10,52,20.70
2015,06,08,10,53,20.70
2015,06,08,10,54,20.70
2015,06,08,10,55,20.80
2015,06,08,10,56,20.80
2015,06,08,10,57,20.80
2015,06,08,10,58,20.80
2015,06,08,10,59,20.80
2015,06,08,11,00,20.70
2015,06,08,11,01,20.70
2015,06,08,11,02,20.70
2015,06,08,11,03,20.70
2015,06,08,11,04,20.70
2015,06,08,11,05,20.70
2015,06,08,11,06,20.80
2015,06,08,11,07,20.80
2015,06,08,11,08,20.70
2015,06,08,11,09,20.70
2015,06,08,11,10,20.60
2015,06,08,11,11,20.60
2015,06,08,11,12,20.60
2015,06,08,11,13,20.60
2015,06,08,11,14,20.60
2015,06,08,11,15,20.60
2015,06,08,11,16,20.60
2015,06,08,11,17,20.60
2015,06,08,11,18,20.60
2015,06,08,11,19,20.70
2015,06,08,11,20,20.80
2015,06,08,11,21,20.80
2015,06,08,11,22,20.80
2015,06,08,11,23,20.80
2015,06,08,11,24,20.80
2015,06,08,11,25,20.80
2015,06,08,11,26,20.80
2015,06,08,11,27,20.80
2015,06,08,11,28,20.80
2015,06,08,11,29,20.70
2015,06,08,11,30,20.80
2015,06,08,11,31,20.80
2015,06,08,11,32,20.80
2015,06,08,11,33,20.80
2015,06,08,11,34,20.80
2015,06,08,11,35,20.80
2015,06,08,11,36,20.80
2015,06,08,11,37,20.80
2015,06,08,11,38,20.70
2015,06,08,11,39,20.70
2015,06,08,11,40,20.60
2015,06,08,11,41,20.60
2015,06,08,11,42,20.60
2015,06,08,11,43,20.60
2015,06,08,11,44,20.60
2015,06,08,11,45,20.60
2015,06,08,11,46,20.60
2015,06,08,11,47,20.60
2015,06,08,11,48,20.70
2015,06,08,11,49,20.70
2015,06,08,11,50,20.70
2015,06,08,11,51,20.70
2015,06,08,11,52,20.70
2015,06,08,11,53,20.70
2015,06,08,11,54,20.70
2015,06,08,11,55,20.70
2015,06,08,11,56,20.70
2015,06,08,11,57,20.70
2015,06,08,11,58,20.80
2015,06,08,11,59,20.80
2015,06,08,12,00,20.90
2015,06,08,12,01,20.90
2015,06,08,12,02,21.00
2015,06,08,12,03,20.90
2015,06,08,12,04,20.90
2015,06,08,12,05,21.00
2015,06,08,12,06,21.10
2015,06,08,12,07,21.20
2015,06,08,12,08,21.20
2015,06,08,12,09,21.20
2015,06,08,12,10,21.10
2015,06,08,12,11,21.10
2015,06,08,12,12,21.10
2015,06,08,12,13,21.10
2015,06,08,12,14,21.20
2015,06,08,12,15,21.30
2015,06,08,12,16,21.30
2015,06,08,12,17,21.30
2015,06,08,12,18,21.30
2015,06,08,12,19,21.20
2015,06,08,12,20,21.20
2015,06,08,12,21,21.10
2015,06,08,12,22,21.10
2015,06,08,12,23,21.00
2015,06,08,12,24,21.00
2015,06,08,12,25,20.90
2015,06,08,12,26,20.90
2015,06,08,12,27,20.90
2015,06,08,12,28,20.90
2015,06,08,12,29,20.90
2015,06,08,12,30,20.90
2015,06,08,12,31,20.90
2015,06,08,12,32,20.90
2015,06,08,12,33,20.80
2015,06,08,12,34,20.90
2015,06,08,12,35,20.90
2015,06,08,12,36,21.00
2015,06,08,12,37,21.10
2015,06,08,12,38,21.10
2015,06,08,12,39,21.10
2015,06,08,12,40,21.10
2015,06,08,12,41,21.10
2015,06,08,12,42,21.10
2015,06,08,12,43,21.00
2015,06,08,12,44,21.00
2015,06,08,12,45,21.00
2015,06,08,12,46,21.00
2015,06,08,12,47,21.00
2015,06,08,12,48,21.00
2015,06,08,12,49,21.00
2015,06,08,12,50,21.00
2015,06,08,12,51,21.00
2015,06,08,12,52,21.00
2015,06,08,12,53,21.10
2015,06,08,12,54,21.20
2015,06,08,12,55,21.20
2015,06,08,12,56,21.30
2015,06,08,12,57,21.40
2015,06,08,12,58,21.40
2015,06,08,12,59,21.50
2015,06,08,13,00,21.60
2015,06,08,13,01,21.60
2015,06,08,13,02,21.70
2015,06,08,13,03,21.80
2015,06,08,13,04,21.80
2015,06,08,13,05,21.90
2015,06,08,13,06,21.90
2015,06,08,13,07,21.90
2015,06,08,13,08,21.90
2015,06,08,13,09,21.90
2015,06,08,13,10,21.90
2015,06,08,13,11,21.90
2015,06,08,13,12,21.80
2015,06,08,13,13,21.80
2015,06,08,13,14,21.70
2015,06,08,13,15,21.70
2015,06,08,13,16,21.70
2015,06,08,13,17,21.60
2015,06,08,13,18,21.60
2015,06,08,13,19,21.60
2015,06,08,13,20,21.50
2015,06,08,13,21,21.60
2015,06,08,13,22,21.60
2015,06,08,13,23,21.70
2015,06,08,13,24,21.70
2015,06,08,13,25,21.60
2015,06,08,13,26,21.60
2015,06,08,13,27,21.60
2015,06,08,13,28,21.60
2015,06,08,13,29,21.60
2015,06,08,13,30,21.50
2015,06,08,13,31,21.50
2015,06,08,13,32,21.50
2015,06,08,13,33,21.50
2015,06,08,13,34,21.50
2015,06,08,13,35,21.50
2015,06,08,13,36,21.60
2015,06,08,13,37,21.70
2015,06,08,13,38,21.80
2015,06,08,13,39,21.90
2015,06,08,13,40,22.00
2015,06,08,13,41,22.00
2015,06,08,13,42,22.10
2015,06,08,13,43,22.20
2015,06,08,13,44,22.40
2015,06,08,13,45,22.40
2015,06,08,13,46,22.30
2015,06,08,13,47,22.30
2015,06,08,13,48,22.30
2015,06,08,13,49,22.30
2015,06,08,13,50,22.30
2015,06,08,13,51,22.30
2015,06,08,13,52,22.40
2015,06,08,13,53,22.50
2015,06,08,13,54,22.50
2015,06,08,13,55,22.50
2015,06,08,13,56,22.50
2015,06,08,13,57,22.40
2015,06,08,13,58,22.40
2015,06,08,13,59,22.40
2015,06,08,14,00,22.50
2015,06,08,14,01,22.50
2015,06,08,14,02,22.60
2015,06,08,14,03,22.60
2015,06,08,14,04,22.60
2015,06,08,14,05,22.60
2015,06,08,14,06,22.60
2015,06,08,14,07,22.70
2015,06,08,14,08,22.70
2015,06,08,14,09,22.70
2015,06,08,14,10,22.70
2015,06,08,14,11,22.80
2015,06,08,14,12,22.80
2015,06,08,14,13,22.70
2015,06,08,14,14,22.70
2015,06,08,14,15,22.70
2015,06,08,14,16,22.70
2015,06,08,14,17,22.70
2015,06,08,14,18,22.70
2015,06,08,14,19,22.70
2015,06,08,14,20,22.70
2015,06,08,14,21,22.70
2015,06,08,14,22,22.70
2015,06,08,14,23,22.70
2015,06,08,14,24,22.80
2015,06,08,14,25,22.90
2015,06,08,14,26,23.00
2015,06,08,14,27,23.10
2015,06,08,14,28,23.10
2015,06,08,14,29,23.20
2015,06,08,14,30,23.20
2015,06,08,14,31,23.10
2015,06,08,14,32,23.20
2015,06,08,14,33,23.20
2015,06,08,14,34,23.20
2015,06,08,14,35,23.30
2015,06,08,14,36,23.30
2015,06,08,14,37,23.40
2015,06,08,14,38,23.50
2015,06,08,14,39,23.50
2015,06,08,14,40,23.60
2015,06,08,14,41,23.60
2015,06,08,14,42,23.60
2015,06,08,14,43,23.60
2015,06,08,14,44,23.60
2015,06,08,14,45,23.70
2015,06,08,14,46,23.70
2015,06,08,14,47,23.70
2015,06,08,14,48,23.70
2015,06,08,14,49,23.70
2015,06,08,14,50,23.80
2015,06,08,14,51,23.80
2015,06,08,14,52,23.80
2015,06,08,14,53,23.80
2015,06,08,14,54,23.80
2015,06,08,14,55,23.80
2015,06,08,14,56,23.80
2015,06,08,14,57,23.80
2015,06,08,14,58,23.80
2015,06,08,14,59,23.90
2015,06,08,15,00,24.00
2015,06,08,15,01,24.00
2015,06,08,15,02,24.00
2015,06,08,15,03,24.00
2015,06,08,15,04,23.90
2015,06,08,15,05,23.90
2015,06,08,15,06,23.90
2015,06,08,15,07,23.90
2015,06,08,15,08,24.00
2015,06,08,15,09,24.10
2015,06,08,15,10,24.10
2015,06,08,15,11,24.10
2015,06,08,15,12,24.10
2015,06,08,15,13,24.10
2015,06,08,15,14,24.10
2015,06,08,15,15,24.10
2015,06,08,15,16,24.20
2015,06,08,15,17,24.20
2015,06,08,15,18,24.20
2015,06,08,15,19,24.20
2015,06,08,15,20,24.10
2015,06,08,15,21,24.10
2015,06,08,15,22,24.00
2015,06,08,15,23,24.00
2015,06,08,15,24,24.00
2015,06,08,15,25,23.90
2015,06,08,15,26,23.90
2015,06,08,15,27,23.90
2015,06,08,15,28,23.90
2015,06,08,15,29,23.90
2015,06,08,15,30,24.00
2015,06,08,15,31,24.00
2015,06,08,15,32,24.00
2015,06,08,15,33,24.10
2015,06,08,15,34,24.10
2015,06,08,15,35,24.10
2015,06,08,15,36,24.10
2015,06,08,15,37,24.10
2015,06,08,15,38,24.10
2015,06,08,15,39,24.20
2015,06,08,15,40,24.20
2015,06,08,15,41,24.20
2015,06,08,15,42,24.30
2015,06,08,15,43,24.30
2015,06,08,15,44,24.30
2015,06,08,15,45,24.40
2015,06,08,15,46,24.40
2015,06,08,15,47,24.40
2015,06,08,15,48,24.40
2015,06,08,15,49,24.40
2015,06,08,15,50,24.50
2015,06,08,15,51,24.60
2015,06,08,15,52,24.60
2015,06,08,15,53,24.70
2015,06,08,15,54,24.70
2015,06,08,15,55,24.70
2015,06,08,15,56,24.70
2015,06,08,15,57,24.70
2015,06,08,15,58,24.70
2015,06,08,15,59,24.70
2015,06,08,16,00,24.70
2015,06,08,16,01,24.70
2015,06,08,16,02,24.60
2015,06,08,16,03,24.60
2015,06,08,16,04,24.60
2015,06,08,16,05,24.60
2015,06,08,16,06,24.60
2015,06,08,16,07,24.70
2015,06,08,16,08,24.80
2015,06,08,16,09,24.90
2015,06,08,16,10,24.90
2015,06,08,16,11,24.90
2015,06,08,16,12,25.00
2015,06,08,16,13,25.00
2015,06,08,16,14,25.10
2015,06,08,16,15,25.00
2015,06,08,16,16,25.00
2015,06,08,16,17,24.90
2015,06,08,16,18,24.70
2015,06,08,16,19,24.50
2015,06,08,16,20,24.20
2015,06,08,16,21,24.00
2015,06,08,16,22,23.90
2015,06,08,16,23,23.80
2015,06,08,16,24,23.80
2015,06,08,16,25,23.80
2015,06,08,16,26,23.70
2015,06,08,16,27,23.70
2015,06,08,16,28,23.70
2015,06,08,16,29,23.80
2015,06,08,16,30,23.80
2015,06,08,16,31,23.90
2015,06,08,16,32,24.00
2015,06,08,16,33,24.20
2015,06,08,16,34,24.20
2015,06,08,16,35,24.30
2015,06,08,16,36,24.30
2015,06,08,16,37,24.30
2015,06,08,16,38,24.30
2015,06,08,16,39,24.30
2015,06,08,16,40,24.30
2015,06,08,16,41,24.40
2015,06,08,16,42,24.30
2015,06,08,16,43,24.30
2015,06,08,16,44,24.30
2015,06,08,16,45,24.40
2015,06,08,16,46,24.40
2015,06,08,16,47,24.40
2015,06,08,16,48,24.40
2015,06,08,16,49,24.40
2015,06,08,16,50,24.50
2015,06,08,16,51,24.60
2015,06,08,16,52,24.60
2015,06,08,16,53,24.60
2015,06,08,16,54,24.70
2015,06,08,16,55,24.70
2015,06,08,16,56,24.80
2015,06,08,16,57,24.80
2015,06,08,16,58,24.80
2015,06,08,16,59,24.90
2015,06,08,17,00,24.90
2015,06,08,17,01,24.90
2015,06,08,17,02,25.00
2015,06,08,17,03,25.00
2015,06,08,17,04,25.10
2015,06,08,17,05,25.10
2015,06,08,17,06,25.20
2015,06,08,17,07,25.20
2015,06,08,17,08,25.30
2015,06,08,17,09,25.30
2015,06,08,17,10,25.30
2015,06,08,17,11,25.30
2015,06,08,17,12,25.20
2015,06,08,17,13,25.10
2015,06,08,17,14,24.90
2015,06,08,17,15,24.80
2015,06,08,17,16,24.70
2015,06,08,17,17,24.50
2015,06,08,17,18,24.40
2015,06,08,17,19,24.30